Walla Walla, WA

5:42 PM PDT on April 27, 2017 (GMT -0700)
Walla Walla Regional

Weather History for KALW - January, 2013

Change the Weather History Date:

Wednesday, January 23, 2013

  Actual Average Record
Temperature  
Mean Temperature 28 °F 37 °F  
Max Temperature 32 °F 42 °F 62 °F (1953)
Min Temperature 24 °F 31 °F -5 °F (1969)
Degree Days  
Heating Degree Days 37 28  
Month to date heating degree days 690  
Since 1 July heating degree days 2828  
Cooling Degree Days 0 0  
Month to date cooling degree days 0  
Year to date cooling degree days 0  
Moisture  
Dew Point 24 °F    
Average Humidity 88    
Maximum Humidity 93    
Minimum Humidity 85    
Precipitation  
Precipitation 0.11 in 0.07 in 0.92 in (1959)
Month to date precipitation 1.95  
Year to date precipitation 1.95  
Snow  
Snow 0.00 in 0.10 in 1.00 in (1957)
Month to date snowfall 1.5  
Year to date snowfall 1.5  
Since 1 July snowfall 7.2  
Snow Depth -    
Sea Level Pressure  
Sea Level Pressure 30.11 in    
Wind  
Wind Speed 3 mph (WSW)    
Max Wind Speed 9 mph    
Max Gust Speed -    
Visibility 6 miles    
Events Rain    
T = Trace of Precipitation, MM = Missing Value Source: NWS Daily Summary

Daily Weather History Graph

Daily Weather History Graph

Search for Another Location

Airport or City:

Trip Planner

Search our weather history database for the weather conditions in past years. The results will help you decide how hot, cold, wet, or windy it might be!

Date:

Astronomy

Jan. 23, 2013 Rise Set
Actual Time 7:24 AM PST 4:45 PM PST
Civil Twilight 6:52 AM PST 5:18 PM PST
Nautical Twilight 6:15 AM PST 5:55 PM PST
Astronomical Twilight 5:40 AM PST 6:30 PM PST
Moon 1:57 PM PST (1/23) 4:43 AM PST (1/23)
Length of Visible Light 10h 26m
Length of Day
9h 20m
Waxing Gibbous, 90% of the Moon is Illuminated
Jan 23
Waxing Gibbous
Jan 26
Full
Feb 3
Last Quarter
Feb 9
New
Feb 17
First Quarter

Hourly Weather History & Observations

Time (PST) Temp. Windchill Dew Point Humidity Pressure Visibility Wind Dir Wind Speed Gust Speed Precip Events Conditions
12:53 AM 25.0 °F - 21.9 °F 88% 30.22 in 6.0 mi Calm Calm - N/A   Overcast
1:53 AM 25.0 °F 19.3 °F 21.9 °F 88% 30.22 in 6.0 mi WNW 4.6 mph - N/A   Overcast
2:53 AM 25.0 °F 20.7 °F 21.9 °F 88% 30.21 in 8.0 mi NW 3.5 mph - N/A   Overcast
3:53 AM 24.1 °F 17.0 °F 21.9 °F 91% 30.20 in 7.0 mi West 5.8 mph - N/A   Overcast
4:53 AM 24.1 °F 19.7 °F 21.0 °F 88% 30.17 in 8.0 mi NNW 3.5 mph - N/A   Overcast
5:53 AM 24.1 °F 17.0 °F 21.0 °F 88% 30.17 in 8.0 mi WNW 5.8 mph - N/A   Overcast
6:53 AM 24.1 °F - 21.0 °F 88% 30.16 in 8.0 mi Calm Calm - N/A   Overcast
7:53 AM 24.1 °F - 21.9 °F 91% 30.14 in 3.0 mi Calm Calm - N/A   Overcast
8:53 AM 24.1 °F - 21.9 °F 91% 30.15 in 3.0 mi Calm Calm - N/A   Overcast
9:53 AM 24.1 °F - 21.9 °F 91% 30.11 in 3.0 mi Calm Calm - N/A   Overcast
10:53 AM 25.0 °F - 21.9 °F 88% 30.10 in 4.0 mi Calm Calm - N/A   Overcast
11:53 AM 25.0 °F - 21.9 °F 88% 30.11 in 6.0 mi Calm Calm - N/A   Overcast
12:53 PM 25.0 °F 20.7 °F 23.0 °F 92% 30.07 in 6.0 mi WNW 3.5 mph - 0.00 in   Overcast
1:53 PM 26.1 °F 20.5 °F 23.0 °F 88% 30.03 in 6.0 mi North 4.6 mph - 0.00 in Rain Light Freezing Rain
2:16 PM 26.6 °F 20.0 °F 23.0 °F 86% 29.96 in 8.0 mi North 5.8 mph - 0.00 in   Overcast
2:53 PM 27.0 °F 23.0 °F 23.0 °F 85% 30.00 in 10.0 mi NW 3.5 mph - 0.00 in   Overcast
3:53 PM 26.1 °F 19.4 °F 23.0 °F 88% 30.05 in 10.0 mi WSW 5.8 mph - N/A   Overcast
4:33 PM 26.6 °F 21.2 °F 24.8 °F 93% 29.99 in 7.0 mi South 4.6 mph - N/A   Overcast
4:43 PM 26.6 °F 21.2 °F 24.8 °F 93% 29.99 in 6.0 mi South 4.6 mph - 0.00 in   Overcast
4:53 PM 26.1 °F 20.5 °F 24.1 °F 92% 30.03 in 7.0 mi South 4.6 mph - 0.00 in   Overcast
5:53 PM 26.1 °F 20.5 °F 23.0 °F 88% 30.04 in 7.0 mi SW 4.6 mph - N/A   Overcast
7:27 PM 26.6 °F 18.2 °F 23.0 °F 86% 30.07 in 7.0 mi SSE 8.1 mph - N/A   Overcast
7:53 PM 27.0 °F 19.5 °F 23.0 °F 85% 30.10 in 10.0 mi SSE 6.9 mph - N/A   Overcast
8:53 PM 28.0 °F 22.8 °F 24.1 °F 85% 30.12 in 7.0 mi SSE 4.6 mph - N/A   Overcast
9:53 PM 28.9 °F 25.2 °F 25.0 °F 85% 30.14 in 6.0 mi SE 3.5 mph - 0.01 in   Overcast
10:25 PM 30.2 °F 26.7 °F 26.6 °F 86% 30.10 in 4.0 mi SSW 3.5 mph - 0.02 in Rain Light Freezing Rain
10:32 PM 30.2 °F - 26.6 °F 86% 30.10 in 3.0 mi Calm Calm - 0.03 in Rain Light Freezing Rain
10:42 PM 30.2 °F - 26.6 °F 86% 30.11 in 3.0 mi Calm Calm - 0.05 in Rain Light Freezing Rain
10:53 PM 30.9 °F 27.5 °F 27.0 °F 85% 30.16 in 4.0 mi ENE 3.5 mph - 0.06 in Rain Light Freezing Rain
11:11 PM 30.2 °F 23.4 °F 28.4 °F 93% 30.11 in 4.0 mi SE 6.9 mph - 0.02 in Rain Light Freezing Rain
11:32 PM 32.0 °F 26.4 °F 28.4 °F 87% 30.12 in 5.0 mi NW 5.8 mph - 0.04 in Rain Light Freezing Rain
11:53 PM 30.9 °F 22.8 °F 28.0 °F 89% 30.17 in 5.0 mi NW 9.2 mph - 0.04 in   Overcast